TimeCST,TemperatureF,Dew PointF,Humidity,Sea Level PressureIn,VisibilityMPH,Wind Direction,Wind SpeedMPH,Gust SpeedMPH,PrecipitationIn,Events,Conditions,WindDirDegrees,DateUTC
12:51 AM,57.9,45.0,62,29.91,10.0,South,5.8,-,N/A,,Clear,170,2013-11-04 06:51:00
1:51 AM,57.9,46.0,65,29.92,10.0,South,11.5,-,N/A,,Clear,190,2013-11-04 07:51:00
2:51 AM,57.9,46.0,65,29.92,10.0,SSW,9.2,-,N/A,,Clear,210,2013-11-04 08:51:00
3:51 AM,57.9,46.0,65,29.92,10.0,South,4.6,-,N/A,,Clear,170,2013-11-04 09:51:00
4:51 AM,57.0,48.0,72,29.91,10.0,SSW,3.5,-,N/A,,Clear,200,2013-11-04 10:51:00
5:51 AM,57.0,48.9,74,29.94,10.0,SW,8.1,-,N/A,,Clear,230,2013-11-04 11:51:00
6:51 AM,57.0,50.0,77,29.94,10.0,SSW,9.2,-,N/A,,Clear,210,2013-11-04 12:51:00
7:51 AM,57.9,50.0,75,29.95,10.0,South,10.4,-,N/A,,Clear,190,2013-11-04 13:51:00
8:51 AM,59.0,51.1,75,29.97,10.0,South,13.8,19.6,N/A,,Clear,190,2013-11-04 14:51:00
9:51 AM,60.1,52.0,75,29.99,10.0,South,13.8,21.9,N/A,,Clear,190,2013-11-04 15:51:00
10:51 AM,62.1,52.0,70,29.99,10.0,South,13.8,20.7,N/A,,Clear,180,2013-11-04 16:51:00
11:16 AM,62.6,53.6,72,30.01,10.0,SSW,12.7,-,N/A,,Mostly Cloudy,210,2013-11-04 17:16:00
11:51 AM,64.9,54.0,68,29.97,10.0,SSW,8.1,17.3,N/A,,Mostly Cloudy,200,2013-11-04 17:51:00
12:38 PM,66.2,53.6,64,29.99,10.0,South,12.7,20.7,N/A,,Scattered Clouds,190,2013-11-04 18:38:00
12:51 PM,68.0,55.0,63,29.94,10.0,SSW,15.0,19.6,N/A,,Mostly Cloudy,200,2013-11-04 18:51:00
1:51 PM,69.1,54.0,58,29.91,10.0,South,13.8,19.6,N/A,,Mostly Cloudy,180,2013-11-04 19:51:00
2:51 PM,69.1,54.0,58,29.91,10.0,South,5.8,-,N/A,,Overcast,180,2013-11-04 20:51:00
3:51 PM,70.0,53.1,55,29.89,10.0,South,8.1,-,N/A,,Overcast,190,2013-11-04 21:51:00
4:51 PM,70.0,53.1,55,29.90,10.0,SSE,11.5,-,N/A,,Overcast,160,2013-11-04 22:51:00
5:51 PM,66.9,52.0,59,29.91,10.0,SSE,10.4,-,N/A,,Overcast,160,2013-11-04 23:51:00
6:51 PM,64.9,53.1,65,29.93,10.0,SE,6.9,-,N/A,,Overcast,140,2013-11-05 00:51:00
7:51 PM,63.0,52.0,67,29.96,10.0,SE,8.1,-,N/A,,Overcast,130,2013-11-05 01:51:00
8:51 PM,62.1,53.1,72,29.97,10.0,SSE,8.1,-,N/A,,Mostly Cloudy,150,2013-11-05 02:51:00
9:51 PM,61.0,54.0,78,29.97,10.0,ESE,5.8,-,N/A,,Mostly Cloudy,120,2013-11-05 03:51:00
10:51 PM,60.1,55.0,83,29.96,10.0,ESE,6.9,-,N/A,,Overcast,120,2013-11-05 04:51:00
11:51 PM,57.0,54.0,89,29.95,10.0,ESE,4.6,-,N/A,,Mostly Cloudy,110,2013-11-05 05:51:00